THY854 LTFM-LTAJ

Flight info

Callsign THY854
Flight time 1h 24m
Altitude 39000
Route VICEN1S/36 VICEN UT57 VEVUD UT341 BAG UL605 RATSI UA17 ASBOM
Aircraft A319/M-SDE3FGHIRWY/LB1

Departure

Time 2026-05-06 14:43
Airport İstanbul Airport (LTFM)

Arrival

Time 2026-05-06 16:07
Airport Gaziantep Oğuzeli International Airport (LTAJ)
Time Latitude Longitude Altitude Speed Heading
2026-05-06 14:16 41.25798 28.75046 333 ft 0 kts 251°
2026-05-06 14:35 41.25800 28.75054 333 ft 3 kts 251°
2026-05-06 14:36 41.25809 28.75087 333 ft 3 kts 251°
2026-05-06 14:36 41.25817 28.75120 333 ft 3 kts 251°
2026-05-06 14:36 41.25821 28.75154 333 ft 3 kts 284°
2026-05-06 14:36 41.25805 28.75178 333 ft 3 kts 338°
2026-05-06 14:37 41.25801 28.75180 333 ft 0 kts 345°
2026-05-06 14:39 41.25806 28.75178 333 ft 4 kts 346°
2026-05-06 14:39 41.25837 28.75221 333 ft 8 kts 83°
2026-05-06 14:39 41.25832 28.75304 333 ft 9 kts 87°
2026-05-06 14:40 41.25876 28.75386 333 ft 15 kts 19°
2026-05-06 14:40 41.25994 28.75389 333 ft 17 kts 359°
2026-05-06 14:40 41.26117 28.75388 333 ft 17 kts
2026-05-06 14:40 41.26227 28.75417 333 ft 15 kts 65°
2026-05-06 14:41 41.26234 28.75483 333 ft 0 kts 91°
2026-05-06 14:41 41.26234 28.75514 333 ft 5 kts 90°
2026-05-06 14:41 41.26234 28.75580 333 ft 11 kts 88°
2026-05-06 14:41 41.26270 28.75669 333 ft 11 kts 14°
2026-05-06 14:42 41.26288 28.75671 333 ft 0 kts
2026-05-06 14:42 41.26289 28.75671 333 ft 0 kts
2026-05-06 14:42 41.26382 28.75670 333 ft 45 kts 359°
2026-05-06 14:42 41.26955 28.75656 334 ft 117 kts 358°
2026-05-06 14:43 41.27947 28.75650 558 ft 155 kts
2026-05-06 14:43 41.28961 28.75618 1373 ft 145 kts
2026-05-06 14:43 41.29954 28.75570 2115 ft 143 kts 359°
2026-05-06 14:43 41.30915 28.75549 2706 ft 143 kts
2026-05-06 14:44 41.31763 28.76281 3114 ft 157 kts 54°
2026-05-06 14:44 41.32408 28.77512 3550 ft 170 kts 45°
2026-05-06 14:44 41.33341 28.78591 3994 ft 186 kts 34°
2026-05-06 14:45 41.35474 28.81006 4784 ft 231 kts 65°
2026-05-06 14:45 41.35608 28.83202 5382 ft 254 kts 102°
2026-05-06 14:45 41.34767 28.85345 6024 ft 273 kts 123°
2026-05-06 14:45 41.33601 28.87381 6657 ft 287 kts 124°
2026-05-06 14:46 41.32388 28.89534 7512 ft 293 kts 123°
2026-05-06 14:46 41.31211 28.91772 8450 ft 295 kts 121°
2026-05-06 14:46 41.30069 28.94068 9339 ft 298 kts 119°
2026-05-06 14:46 41.28965 28.96371 10184 ft 301 kts 118°
2026-05-06 14:47 41.27808 28.98847 10778 ft 314 kts 118°
2026-05-06 14:47 41.26646 29.01368 11341 ft 326 kts 118°
2026-05-06 14:47 41.25422 29.04029 12115 ft 331 kts 118°
2026-05-06 14:47 41.24223 29.06639 12881 ft 335 kts 118°
2026-05-06 14:48 41.23001 29.09300 13601 ft 339 kts 118°
2026-05-06 14:48 41.21749 29.12029 14317 ft 343 kts 118°
2026-05-06 14:48 41.20489 29.14770 15007 ft 347 kts 118°
2026-05-06 14:48 41.19227 29.17516 15682 ft 351 kts 118°
2026-05-06 14:49 41.17947 29.20303 16372 ft 354 kts 118°
2026-05-06 14:49 41.16642 29.23142 17044 ft 358 kts 118°
2026-05-06 14:49 41.15337 29.25977 17687 ft 362 kts 118°
2026-05-06 14:49 41.13998 29.28886 18328 ft 365 kts 118°
2026-05-06 14:50 41.12656 29.31795 18951 ft 369 kts 118°
2026-05-06 14:50 41.11300 29.34731 19570 ft 372 kts 118°
2026-05-06 14:50 41.09948 29.37659 20210 ft 375 kts 118°
2026-05-06 14:50 41.08570 29.40637 20824 ft 378 kts 119°
2026-05-06 14:51 41.07206 29.43580 21440 ft 381 kts 118°
2026-05-06 14:51 41.05799 29.46616 22007 ft 384 kts 118°
2026-05-06 14:51 41.04392 29.49648 22581 ft 387 kts 118°
2026-05-06 14:51 41.02990 29.52667 23127 ft 391 kts 118°
2026-05-06 14:52 41.01568 29.55731 23693 ft 393 kts 118°
2026-05-06 14:52 41.00113 29.58859 24232 ft 396 kts 118°
2026-05-06 14:52 40.98650 29.61999 24737 ft 400 kts 118°
2026-05-06 14:52 40.97197 29.65117 25218 ft 403 kts 119°
2026-05-06 14:53 40.95710 29.68312 25687 ft 406 kts 119°
2026-05-06 14:53 40.94224 29.71507 26116 ft 410 kts 119°
2026-05-06 14:53 40.92703 29.74772 26589 ft 413 kts 119°
2026-05-06 14:53 40.91196 29.77994 27031 ft 416 kts 119°
2026-05-06 14:54 40.89679 29.81233 27463 ft 419 kts 119°
2026-05-06 14:54 40.88120 29.84534 27898 ft 422 kts 120°
2026-05-06 14:54 40.86528 29.87891 28321 ft 424 kts 120°
2026-05-06 14:54 40.84965 29.91195 28723 ft 427 kts 119°
2026-05-06 14:55 40.83381 29.94551 29124 ft 429 kts 120°
2026-05-06 14:55 40.81814 29.97872 29497 ft 432 kts 119°
2026-05-06 14:55 40.80201 30.01288 29853 ft 435 kts 119°
2026-05-06 14:55 40.78604 30.04670 30202 ft 438 kts 119°
2026-05-06 14:56 40.76986 30.08096 30554 ft 441 kts 119°
2026-05-06 14:56 40.75357 30.11538 30885 ft 444 kts 119°
2026-05-06 14:56 40.73711 30.15018 31206 ft 446 kts 119°
2026-05-06 14:56 40.72066 30.18486 31505 ft 449 kts 119°
2026-05-06 14:57 40.70400 30.21998 31794 ft 452 kts 119°
2026-05-06 14:57 40.68719 30.25532 32092 ft 455 kts 119°
2026-05-06 14:57 40.67017 30.29046 32392 ft 458 kts 121°
2026-05-06 14:57 40.65145 30.32496 32790 ft 459 kts 125°
2026-05-06 14:58 40.63209 30.35810 33219 ft 457 kts 125°
2026-05-06 14:58 40.61256 30.39125 33630 ft 456 kts 125°
2026-05-06 14:58 40.59280 30.42476 34026 ft 455 kts 125°
2026-05-06 14:58 40.57424 30.45779 34362 ft 454 kts 121°
2026-05-06 14:59 40.55724 30.49300 34679 ft 452 kts 117°
2026-05-06 14:59 40.54254 30.52937 34974 ft 451 kts 112°
2026-05-06 14:59 40.53009 30.56701 35261 ft 449 kts 108°
2026-05-06 14:59 40.51991 30.60561 35541 ft 447 kts 103°
2026-05-06 15:00 40.51203 30.64467 35796 ft 445 kts 99°
2026-05-06 15:00 40.50520 30.68442 36022 ft 445 kts 99°
2026-05-06 15:00 40.49829 30.72483 36256 ft 446 kts 101°
2026-05-06 15:00 40.49010 30.76395 36497 ft 448 kts 104°
2026-05-06 15:01 40.48104 30.80280 36749 ft 448 kts 105°
2026-05-06 15:01 40.47174 30.84195 37005 ft 448 kts 105°
2026-05-06 15:01 40.46119 30.87999 37227 ft 450 kts 112°
2026-05-06 15:01 40.44786 30.91729 37462 ft 451 kts 114°
2026-05-06 15:02 40.43386 30.95443 37653 ft 452 kts 115°
2026-05-06 15:02 40.42004 30.99089 37814 ft 454 kts 115°
2026-05-06 15:02 40.40595 31.02828 37980 ft 455 kts 114°
2026-05-06 15:02 40.39199 31.06547 38154 ft 456 kts 114°
2026-05-06 15:03 40.37801 31.10291 38314 ft 457 kts 114°
2026-05-06 15:03 40.36401 31.14041 38457 ft 459 kts 114°
2026-05-06 15:03 40.34990 31.17825 38602 ft 460 kts 114°
2026-05-06 15:03 40.33601 31.21547 38761 ft 461 kts 114°
2026-05-06 15:04 40.32193 31.25318 38908 ft 462 kts 115°
2026-05-06 15:04 40.30772 31.29119 39031 ft 463 kts 115°
2026-05-06 15:04 40.29367 31.32873 39027 ft 464 kts 115°
2026-05-06 15:05 40.26525 31.40448 39031 ft 464 kts 115°
2026-05-06 15:05 40.23672 31.48037 39037 ft 465 kts 115°
2026-05-06 15:06 40.20826 31.55589 39032 ft 465 kts 115°
2026-05-06 15:06 40.17971 31.63145 39032 ft 465 kts 115°
2026-05-06 15:07 40.15097 31.70749 39036 ft 470 kts 115°
2026-05-06 15:07 40.12174 31.78475 39031 ft 478 kts 115°
2026-05-06 15:08 40.09217 31.86249 39030 ft 485 kts 115°
2026-05-06 15:08 40.06169 31.94236 39030 ft 491 kts 115°
2026-05-06 15:09 40.03106 32.02232 39020 ft 493 kts 115°
2026-05-06 15:09 40.00020 32.10270 39029 ft 493 kts 115°
2026-05-06 15:10 39.96944 32.18264 39027 ft 494 kts 115°
2026-05-06 15:10 39.93839 32.26311 39017 ft 486 kts 115°
2026-05-06 15:10 39.92356 32.30143 39034 ft 471 kts 115°
2026-05-06 15:11 39.90860 32.34005 39026 ft 468 kts 115°
2026-05-06 15:11 39.87902 32.41585 39026 ft 468 kts 116°
2026-05-06 15:12 39.84952 32.49104 39029 ft 468 kts 116°
2026-05-06 15:12 39.81986 32.56685 39026 ft 468 kts 116°
2026-05-06 15:13 39.79053 32.64178 39024 ft 468 kts 116°
2026-05-06 15:13 39.76080 32.71784 39037 ft 467 kts 116°
2026-05-06 15:14 39.73145 32.79280 39027 ft 467 kts 116°
2026-05-06 15:14 39.70177 32.86823 39028 ft 467 kts 116°
2026-05-06 15:15 39.67220 32.94318 39038 ft 468 kts 116°
2026-05-06 15:15 39.64232 33.01866 39032 ft 468 kts 117°
2026-05-06 15:16 39.61253 33.09367 39029 ft 468 kts 116°
2026-05-06 15:16 39.58239 33.16944 39035 ft 469 kts 116°
2026-05-06 15:17 39.55235 33.24482 39036 ft 469 kts 116°
2026-05-06 15:17 39.52237 33.31980 39038 ft 469 kts 117°
2026-05-06 15:18 39.49242 33.39455 39032 ft 469 kts 117°
2026-05-06 15:18 39.46198 33.47035 39035 ft 469 kts 117°
2026-05-06 15:19 39.43177 33.54534 39029 ft 469 kts 117°
2026-05-06 15:19 39.40124 33.62097 39029 ft 469 kts 117°
2026-05-06 15:20 39.37091 33.69608 39031 ft 470 kts 117°
2026-05-06 15:20 39.34053 33.77122 39027 ft 470 kts 117°
2026-05-06 15:21 39.31030 33.84562 39040 ft 469 kts 117°
2026-05-06 15:21 39.27964 33.92081 39044 ft 470 kts 118°
2026-05-06 15:22 39.24912 33.99548 39037 ft 471 kts 117°
2026-05-06 15:22 39.21829 34.07070 39036 ft 471 kts 118°
2026-05-06 15:23 39.18757 34.14553 39042 ft 472 kts 118°
2026-05-06 15:23 39.15649 34.22099 39037 ft 471 kts 118°
2026-05-06 15:24 39.12532 34.29532 39035 ft 471 kts 121°
2026-05-06 15:24 39.08856 34.36619 39042 ft 470 kts 128°
2026-05-06 15:25 39.04705 34.43116 39043 ft 470 kts 131°
2026-05-06 15:25 39.00463 34.49618 39040 ft 470 kts 131°
2026-05-06 15:26 38.96257 34.56080 39054 ft 470 kts 131°
2026-05-06 15:26 38.92091 34.62483 39055 ft 471 kts 131°
2026-05-06 15:27 38.87838 34.69007 39070 ft 471 kts 131°
2026-05-06 15:27 38.83624 34.75441 39061 ft 471 kts 131°
2026-05-06 15:28 38.79423 34.81854 39068 ft 471 kts 131°
2026-05-06 15:28 38.75234 34.88239 39062 ft 470 kts 131°
2026-05-06 15:29 38.71030 34.94640 39061 ft 470 kts 131°
2026-05-06 15:29 38.66799 35.01064 39067 ft 471 kts 131°
2026-05-06 15:30 38.62586 35.07451 39074 ft 471 kts 132°
2026-05-06 15:30 38.58377 35.13823 39076 ft 471 kts 132°
2026-05-06 15:31 38.54183 35.20153 39070 ft 471 kts 132°
2026-05-06 15:31 38.49927 35.26500 39080 ft 471 kts 133°
2026-05-06 15:32 38.43475 35.35904 39079 ft 471 kts 133°
2026-05-06 15:32 38.41329 35.39030 38901 ft 471 kts 133°
2026-05-06 15:32 38.39153 35.42197 38639 ft 469 kts 133°
2026-05-06 15:33 38.37035 35.45283 38404 ft 467 kts 133°
2026-05-06 15:33 38.34916 35.48367 38170 ft 464 kts 133°
2026-05-06 15:33 38.32783 35.51470 37929 ft 463 kts 133°
2026-05-06 15:33 38.30676 35.54532 37683 ft 462 kts 133°
2026-05-06 15:34 38.28558 35.57605 37440 ft 462 kts 133°
2026-05-06 15:34 38.26464 35.60642 37210 ft 462 kts 133°
2026-05-06 15:34 38.24352 35.63703 36957 ft 462 kts 133°
2026-05-06 15:34 38.22208 35.66811 36710 ft 463 kts 134°
2026-05-06 15:35 38.20121 35.69841 36473 ft 463 kts 134°
2026-05-06 15:35 38.17989 35.72932 36228 ft 464 kts 134°
2026-05-06 15:35 38.15854 35.76019 35978 ft 464 kts 134°
2026-05-06 15:35 38.13723 35.79090 35738 ft 464 kts 134°
2026-05-06 15:36 38.11601 35.82149 35475 ft 465 kts 134°
2026-05-06 15:36 38.09471 35.85214 35089 ft 467 kts 134°
2026-05-06 15:36 38.07323 35.88304 34657 ft 470 kts 134°
2026-05-06 15:36 38.05171 35.91392 33848 ft 478 kts 134°
2026-05-06 15:37 38.02943 35.94587 33088 ft 483 kts 134°
2026-05-06 15:37 38.00726 35.97761 32326 ft 488 kts 133°
2026-05-06 15:37 37.98463 36.01000 31709 ft 488 kts 133°
2026-05-06 15:37 37.96229 36.04199 31157 ft 486 kts 133°
2026-05-06 15:38 37.93995 36.07392 30601 ft 485 kts 133°
2026-05-06 15:38 37.91780 36.10553 30036 ft 483 kts 133°
2026-05-06 15:38 37.89550 36.13734 29519 ft 480 kts 133°
2026-05-06 15:38 37.87349 36.16855 29060 ft 474 kts 134°
2026-05-06 15:39 37.85177 36.19929 28622 ft 469 kts 133°
2026-05-06 15:39 37.83024 36.22982 28178 ft 464 kts 133°
2026-05-06 15:39 37.80896 36.26011 27749 ft 458 kts 133°
2026-05-06 15:39 37.78805 36.28985 27319 ft 453 kts 133°
2026-05-06 15:40 37.76720 36.31956 26906 ft 448 kts 133°
2026-05-06 15:40 37.74696 36.34837 26500 ft 443 kts 133°
2026-05-06 15:40 37.72643 36.37755 26077 ft 438 kts 133°
2026-05-06 15:40 37.70666 36.40564 25691 ft 432 kts 133°
2026-05-06 15:41 37.68673 36.43393 25278 ft 428 kts 133°
2026-05-06 15:41 37.66708 36.46176 24864 ft 423 kts 133°
2026-05-06 15:41 37.64751 36.48947 24476 ft 418 kts 134°
2026-05-06 15:41 37.62850 36.51633 24081 ft 414 kts 134°
2026-05-06 15:42 37.60944 36.54324 23676 ft 410 kts 134°
2026-05-06 15:42 37.59050 36.56997 23276 ft 407 kts 134°
2026-05-06 15:42 37.57179 36.59638 22876 ft 404 kts 134°
2026-05-06 15:42 37.55310 36.62275 22491 ft 400 kts 134°
2026-05-06 15:43 37.53465 36.64874 22123 ft 396 kts 133°
2026-05-06 15:43 37.51639 36.67452 21739 ft 393 kts 134°
2026-05-06 15:43 37.49839 36.70000 21344 ft 390 kts 134°
2026-05-06 15:43 37.48058 36.72547 20958 ft 387 kts 134°
2026-05-06 15:44 37.46293 36.75077 20571 ft 384 kts 133°
2026-05-06 15:44 37.44550 36.77574 20199 ft 381 kts 133°
2026-05-06 15:44 37.42793 36.80086 19833 ft 379 kts 133°
2026-05-06 15:44 37.41078 36.82536 19467 ft 376 kts 133°
2026-05-06 15:45 37.39343 36.85010 19084 ft 374 kts 133°
2026-05-06 15:45 37.37630 36.87451 18701 ft 372 kts 133°
2026-05-06 15:45 37.35939 36.89858 18319 ft 369 kts 133°
2026-05-06 15:45 37.34226 36.92296 17937 ft 367 kts 133°
2026-05-06 15:46 37.32558 36.94667 17563 ft 365 kts 133°
2026-05-06 15:46 37.30868 36.97065 17179 ft 363 kts 133°
2026-05-06 15:46 37.29209 36.99419 16793 ft 362 kts 133°
2026-05-06 15:46 37.27539 37.01787 16416 ft 360 kts 133°
2026-05-06 15:47 37.25880 37.04095 16031 ft 358 kts 135°
2026-05-06 15:47 37.24130 37.06285 15645 ft 356 kts 137°
2026-05-06 15:47 37.22345 37.08454 15258 ft 354 kts 137°
2026-05-06 15:47 37.20588 37.10577 14874 ft 352 kts 137°
2026-05-06 15:48 37.18812 37.12727 14483 ft 351 kts 137°
2026-05-06 15:48 37.17082 37.14821 14098 ft 349 kts 137°
2026-05-06 15:48 37.15328 37.16944 13705 ft 347 kts 137°
2026-05-06 15:48 37.13617 37.19017 13318 ft 345 kts 137°
2026-05-06 15:49 37.11899 37.21135 12980 ft 341 kts 132°
2026-05-06 15:49 37.10564 37.23535 12656 ft 339 kts 116°
2026-05-06 15:49 37.09761 37.26313 12257 ft 338 kts 105°
2026-05-06 15:49 37.09174 37.29125 11877 ft 336 kts 104°
2026-05-06 15:50 37.08602 37.31976 11499 ft 334 kts 104°
2026-05-06 15:50 37.08026 37.34778 11125 ft 332 kts 104°
2026-05-06 15:50 37.07438 37.37562 10753 ft 330 kts 104°
2026-05-06 15:50 37.06859 37.40269 10500 ft 324 kts 104°
2026-05-06 15:51 37.06271 37.42994 10243 ft 318 kts 104°
2026-05-06 15:51 37.05711 37.45589 10133 ft 307 kts 104°
2026-05-06 15:51 37.05163 37.48127 10068 ft 295 kts 104°
2026-05-06 15:51 37.04628 37.50599 9891 ft 289 kts 104°
2026-05-06 15:52 37.04109 37.52999 9658 ft 284 kts 104°
2026-05-06 15:52 37.03599 37.55352 9424 ft 280 kts 104°
2026-05-06 15:52 37.03090 37.57695 9190 ft 276 kts 104°
2026-05-06 15:52 37.02593 37.59984 8964 ft 272 kts 104°
2026-05-06 15:53 37.02100 37.62254 8739 ft 268 kts 105°
2026-05-06 15:53 37.01613 37.64493 8514 ft 264 kts 105°
2026-05-06 15:53 37.01133 37.66698 8294 ft 260 kts 105°
2026-05-06 15:53 37.00662 37.68868 8074 ft 257 kts 105°
2026-05-06 15:54 37.00161 37.70975 7848 ft 253 kts 114°
2026-05-06 15:54 36.99078 37.72604 7657 ft 245 kts 151°
2026-05-06 15:54 36.97463 37.73086 7530 ft 234 kts 187°
2026-05-06 15:54 36.95908 37.72623 7341 ft 228 kts 198°
2026-05-06 15:55 36.94400 37.72039 7041 ft 230 kts 198°
2026-05-06 15:55 36.92851 37.71462 6821 ft 229 kts 197°
2026-05-06 15:55 36.91380 37.70768 6583 ft 227 kts 216°
2026-05-06 15:55 36.90474 37.69228 6331 ft 224 kts 256°
2026-05-06 15:56 36.90509 37.67314 6174 ft 219 kts 285°
2026-05-06 15:56 36.90943 37.65519 6026 ft 215 kts 286°
2026-05-06 15:56 36.91364 37.63747 5853 ft 211 kts 285°
2026-05-06 15:56 36.91761 37.62003 5681 ft 208 kts 285°
2026-05-06 15:57 36.92142 37.60287 5511 ft 204 kts 285°
2026-05-06 15:57 36.92532 37.58601 5363 ft 199 kts 286°
2026-05-06 15:57 36.92918 37.56976 5294 ft 187 kts 285°
2026-05-06 15:57 36.93282 37.55440 5099 ft 182 kts 285°
2026-05-06 15:58 36.93635 37.53942 4885 ft 177 kts 285°
2026-05-06 15:58 36.93975 37.52491 4692 ft 172 kts 285°
2026-05-06 15:58 36.94305 37.51081 4498 ft 165 kts 284°
2026-05-06 15:58 36.94620 37.49728 4270 ft 162 kts 284°
2026-05-06 15:59 36.94749 37.48376 4073 ft 152 kts 258°
2026-05-06 15:59 36.94295 37.47265 4051 ft 147 kts 226°
2026-05-06 15:59 36.93372 37.46614 4066 ft 161 kts 194°
2026-05-06 15:59 36.92243 37.46758 4045 ft 168 kts 159°
2026-05-06 16:00 36.91383 37.47748 4030 ft 173 kts 121°
2026-05-06 16:00 36.91189 37.49220 4019 ft 176 kts 81°
2026-05-06 16:00 36.91777 37.50544 4033 ft 176 kts 45°
2026-05-06 16:00 36.92620 37.51652 4049 ft 177 kts 59°
2026-05-06 16:01 36.92778 37.53160 4060 ft 182 kts 107°
2026-05-06 16:01 36.92241 37.54605 4113 ft 184 kts 120°
2026-05-06 16:01 36.91628 37.55986 4113 ft 184 kts 121°
2026-05-06 16:01 36.91010 37.57384 4112 ft 183 kts 121°
2026-05-06 16:02 36.90398 37.58798 4113 ft 183 kts 120°
2026-05-06 16:02 36.89804 37.60191 4113 ft 183 kts 120°
2026-05-06 16:02 36.89193 37.61609 4113 ft 183 kts 120°
2026-05-06 16:02 36.88768 37.63089 4108 ft 185 kts 92°
2026-05-06 16:03 36.89249 37.64497 4114 ft 171 kts 39°
2026-05-06 16:03 36.90275 37.64856 4119 ft 151 kts 348°
2026-05-06 16:03 36.91143 37.64226 4130 ft 143 kts 302°
2026-05-06 16:03 36.91557 37.63091 4039 ft 143 kts 285°
2026-05-06 16:04 36.91817 37.61909 4000 ft 142 kts 282°
2026-05-06 16:04 36.92055 37.60720 3991 ft 142 kts 282°
2026-05-06 16:04 36.92304 37.59512 3901 ft 143 kts 283°
2026-05-06 16:04 36.92559 37.58313 3715 ft 142 kts 283°
2026-05-06 16:05 36.92814 37.57130 3534 ft 141 kts 283°
2026-05-06 16:05 36.93067 37.55959 3351 ft 141 kts 283°
2026-05-06 16:05 36.93322 37.54775 3171 ft 140 kts 283°
2026-05-06 16:05 36.93575 37.53599 2992 ft 140 kts 282°
2026-05-06 16:06 36.93825 37.52433 2811 ft 139 kts 282°
2026-05-06 16:06 36.94075 37.51271 2631 ft 139 kts 283°
2026-05-06 16:06 36.94326 37.50099 2436 ft 138 kts 283°
2026-05-06 16:06 36.94568 37.48946 2320 ft 136 kts 283°
2026-05-06 16:07 36.94774 37.48003 2320 ft 88 kts 286°
2026-05-06 16:07 36.94896 37.47424 2320 ft 53 kts 285°
2026-05-06 16:07 36.94930 37.47150 2320 ft 19 kts 226°
2026-05-06 16:07 36.94822 37.47117 2320 ft 14 kts 171°
2026-05-06 16:08 36.94777 37.47213 2320 ft 13 kts 105°
2026-05-06 16:08 36.94749 37.47338 2320 ft 12 kts 105°
2026-05-06 16:08 36.94711 37.47430 2320 ft 12 kts 173°
2026-05-06 16:08 36.94648 37.47471 2320 ft 11 kts 101°
2026-05-06 16:09 36.94628 37.47579 2320 ft 12 kts 105°
2026-05-06 16:09 36.94605 37.47683 2320 ft 12 kts 106°
2026-05-06 16:09 36.94584 37.47768 2320 ft 7 kts 116°
2026-05-06 16:09 36.94543 37.47778 2320 ft 5 kts 198°
2026-05-06 16:10 36.94514 37.47767 2320 ft 2 kts 197°
2026-05-06 16:10 36.94512 37.47766 2320 ft 0 kts 197°